When you browse on this site, cookies collect data to enhance your experience and personalize the content and advertising you see.
Visit our Privacy Policy to learn more. By continuing to use the site, you agree to this use of cookies and data.
  • In United Kingdom
  • List of Countries
  • For 7 days
  • Water Temperature
  • Satellite Maps
  • Weather Map
  • Weather Widgets
  • user-avatar
    Login

    Hourly Weather Mazari Sharif

    Today, 21 May, Tuesday

    Time Temperature Precipitation Wind Pressure Humidity
    00:00 +22°C° 0.2 mm 1 mps 654 mmHg 36%
    01:00 +21°C° 0.2 mm 1 mps 654 mmHg 38%
    02:00 +21°C° 0.3 mm 1 mps 654 mmHg 38%
    03:00 +21°C° 0.3 mm 1 mps 654 mmHg 39%
    04:00 +20°C° 0 mm 1 mps 653 mmHg 40%
    05:00 +22°C° 0.1 mm 1 mps 654 mmHg 36%
    06:00 +24°C° 0.1 mm 1 mps 655 mmHg 31%
    07:00 +26°C° 0.1 mm 1 mps 656 mmHg 26%
    08:00 +27°C° 0 mm 1 mps 656 mmHg 24%
    09:00 +28°C° 0 mm 2 mps 656 mmHg 22%
    10:00 +29°C° 0 mm 2 mps 656 mmHg 20%
    11:00 +29°C° 0 mm 2 mps 656 mmHg 19%
    12:00 +30°C° 0 mm 3 mps 656 mmHg 18%
    13:00 +31°C° 0 mm 3 mps 656 mmHg 17%
    14:00 +31°C° 0 mm 3 mps 656 mmHg 16%
    15:00 +30°C° 0 mm 3 mps 655 mmHg 16%
    16:00 +30°C° 0 mm 3 mps 655 mmHg 16%
    17:00 +29°C° 0 mm 2 mps 655 mmHg 18%
    18:00 +27°C° 0 mm 2 mps 655 mmHg 20%
    19:00 +26°C° 0 mm 1 mps 654 mmHg 22%
    20:00 +25°C° 0 mm 1 mps 654 mmHg 23%
    21:00 +24°C° 0 mm 1 mps 655 mmHg 25%
    22:00 +23°C° 0 mm 1 mps 655 mmHg 26%
    23:00 +23°C° 0 mm 1 mps 654 mmHg 26%

    Tomorrow, 22 May, Wednesday

    Time Temperature Precipitation Wind Pressure Humidity
    00:00 +22°C° 0 mm 1 mps 654 mmHg 27%
    01:00 +22°C° 0 mm 1 mps 654 mmHg 27%
    02:00 +22°C° 0 mm 1 mps 653 mmHg 28%
    03:00 +21°C° 0 mm 1 mps 653 mmHg 28%
    04:00 +21°C° 0 mm 1 mps 653 mmHg 28%
    05:00 +21°C° 0 mm 2 mps 654 mmHg 28%
    06:00 +23°C° 0 mm 2 mps 654 mmHg 27%
    07:00 +25°C° 0 mm 3 mps 655 mmHg 26%
    08:00 +25°C° 0 mm 3 mps 655 mmHg 26%
    09:00 +26°C° 0 mm 4 mps 655 mmHg 26%
    10:00 +27°C° 0 mm 4 mps 655 mmHg 26%
    11:00 +28°C° 0 mm 4 mps 655 mmHg 26%
    12:00 +28°C° 0 mm 5 mps 655 mmHg 25%
    13:00 +29°C° 0 mm 5 mps 655 mmHg 24%
    14:00 +28°C° 0.1 mm 5 mps 654 mmHg 25%
    15:00 +28°C° 0.1 mm 5 mps 654 mmHg 25%
    16:00 +28°C° 0.1 mm 6 mps 654 mmHg 26%
    17:00 +27°C° 0.1 mm 6 mps 654 mmHg 27%
    18:00 +24°C° 0.1 mm 6 mps 654 mmHg 28%
    19:00 +23°C° 0.1 mm 6 mps 654 mmHg 29%
    20:00 +22°C° 0 mm 6 mps 654 mmHg 27%
    21:00 +21°C° 0 mm 5 mps 654 mmHg 25%
    22:00 +21°C° 0 mm 5 mps 654 mmHg 23%
    23:00 +20°C° 0 mm 4 mps 653 mmHg 22%

    Day after tomorrow, 23 May, Thursday

    Time Temperature Precipitation Wind Pressure Humidity
    00:00 +19°C° 0 mm 4 mps 653 mmHg 21%
    01:00 +19°C° 0 mm 3 mps 653 mmHg 21%
    02:00 +18°C° 0.1 mm 3 mps 653 mmHg 23%
    03:00 +18°C° 0.1 mm 3 mps 652 mmHg 25%
    04:00 +17°C° 0.1 mm 2 mps 652 mmHg 27%
    05:00 +17°C° 0.4 mm 2 mps 652 mmHg 29%
    06:00 +17°C° 0.4 mm 2 mps 653 mmHg 30%
    07:00 +17°C° 0.4 mm 2 mps 653 mmHg 31%
    08:00 +18°C° 0.4 mm 2 mps 653 mmHg 31%
    09:00 +19°C° 0.4 mm 2 mps 654 mmHg 32%
    10:00 +20°C° 0.4 mm 2 mps 654 mmHg 33%
    11:00 +20°C° 0.2 mm 2 mps 654 mmHg 32%
    12:00 +21°C° 0.2 mm 3 mps 654 mmHg 31%
    13:00 +21°C° 0.2 mm 3 mps 653 mmHg 30%
    14:00 +22°C° 0 mm 3 mps 653 mmHg 28%
    15:00 +22°C° 0 mm 3 mps 653 mmHg 27%
    16:00 +22°C° 0 mm 3 mps 653 mmHg 26%
    17:00 +21°C° 0 mm 2 mps 653 mmHg 28%
    18:00 +20°C° 0 mm 2 mps 653 mmHg 30%
    19:00 +20°C° 0 mm 1 mps 653 mmHg 32%
    20:00 +20°C° 0 mm 1 mps 653 mmHg 33%
    21:00 +20°C° 0 mm 1 mps 653 mmHg 34%
    22:00 +19°C° 0 mm 1 mps 653 mmHg 35%
    23:00 +19°C° 0.1 mm 1 mps 653 mmHg 36%

    24 May, Friday

    Time Temperature Precipitation Wind Pressure Humidity
    00:00 +18°C° 0.1 mm 1 mps 653 mmHg 36%
    01:00 +17°C° 0.1 mm 2 mps 652 mmHg 37%
    02:00 +16°C° 0.6 mm 2 mps 652 mmHg 43%
    03:00 +16°C° 0.6 mm 2 mps 652 mmHg 48%
    04:00 +15°C° 0.6 mm 2 mps 652 mmHg 54%
    05:00 +16°C° 0.3 mm 2 mps 652 mmHg 52%
    06:00 +16°C° 0.3 mm 2 mps 653 mmHg 50%
    07:00 +18°C° 0.3 mm 1 mps 653 mmHg 49%
    08:00 +18°C° 0 mm 2 mps 654 mmHg 43%
    09:00 +19°C° 0 mm 2 mps 654 mmHg 37%
    10:00 +20°C° 0 mm 3 mps 655 mmHg 32%
    11:00 +21°C° 0 mm 3 mps 655 mmHg 30%
    12:00 +22°C° 0 mm 3 mps 655 mmHg 27%
    13:00 +22°C° 0 mm 3 mps 655 mmHg 25%
    14:00 +22°C° 0 mm 3 mps 655 mmHg 24%
    15:00 +24°C° 0 mm 3 mps 655 mmHg 24%
    16:00 +24°C° 0 mm 3 mps 655 mmHg 23%
    17:00 +22°C° 0 mm 3 mps 656 mmHg 25%
    18:00 +21°C° 0 mm 2 mps 656 mmHg 28%
    19:00 +21°C° 0 mm 1 mps 656 mmHg 30%
    20:00 +20°C° 0 mm 1 mps 656 mmHg 31%
    21:00 +20°C° 0 mm 1 mps 656 mmHg 32%
    22:00 +18°C° 0 mm 2 mps 657 mmHg 32%
    23:00 +18°C° 0 mm 2 mps 657 mmHg 33%

    25 May, Saturday

    Time Temperature Precipitation Wind Pressure Humidity
    00:00 +19°C° 0 mm 1 mps 657 mmHg 33%
    01:00 +19°C° 0 mm 1 mps 657 mmHg 33%
    02:00 +18°C° 0.1 mm 2 mps 657 mmHg 35%
    03:00 +17°C° 0.1 mm 2 mps 657 mmHg 36%
    04:00 +17°C° 0.1 mm 2 mps 657 mmHg 37%
    05:00 +18°C° 0.1 mm 2 mps 657 mmHg 38%
    06:00 +18°C° 0.1 mm 2 mps 658 mmHg 38%
    07:00 +19°C° 0.1 mm 2 mps 658 mmHg 38%
    08:00 +20°C° 0.2 mm 2 mps 658 mmHg 35%
    09:00 +21°C° 0.2 mm 2 mps 659 mmHg 32%
    10:00 +21°C° 0.2 mm 2 mps 659 mmHg 30%
    11:00 +22°C° 0.1 mm 3 mps 659 mmHg 28%
    12:00 +24°C° 0.1 mm 3 mps 658 mmHg 26%
    13:00 +25°C° 0.1 mm 4 mps 658 mmHg 24%
    14:00 +25°C° 0 mm 4 mps 658 mmHg 23%
    15:00 +25°C° 0 mm 4 mps 658 mmHg 23%
    16:00 +25°C° 0 mm 4 mps 658 mmHg 22%
    17:00 +24°C° 0 mm 3 mps 658 mmHg 24%
    18:00 +21°C° 0 mm 3 mps 658 mmHg 26%
    19:00 +20°C° 0 mm 2 mps 657 mmHg 27%
    20:00 +20°C° 0 mm 2 mps 657 mmHg 28%
    21:00 +19°C° 0 mm 2 mps 657 mmHg 29%
    22:00 +19°C° 0 mm 2 mps 657 mmHg 30%
    23:00 +18°C° 0 mm 2 mps 657 mmHg 32%

    26 May, Sunday

    Time Temperature Precipitation Wind Pressure Humidity
    00:00 +17°C° 0 mm 2 mps 657 mmHg 33%
    01:00 +17°C° 0 mm 2 mps 656 mmHg 35%
    02:00 +16°C° 0 mm 2 mps 656 mmHg 35%
    03:00 +16°C° 0 mm 2 mps 656 mmHg 36%
    04:00 +16°C° 0 mm 2 mps 656 mmHg 36%
    05:00 +17°C° 0 mm 2 mps 657 mmHg 33%
    06:00 +18°C° 0 mm 2 mps 657 mmHg 30%
    07:00 +19°C° 0 mm 2 mps 658 mmHg 26%
    08:00 +20°C° 0 mm 2 mps 658 mmHg 25%
    09:00 +21°C° 0 mm 2 mps 658 mmHg 23%
    10:00 +23°C° 0 mm 2 mps 658 mmHg 21%
    11:00 +24°C° 0 mm 2 mps 658 mmHg 21%
    12:00 +24°C° 0 mm 2 mps 658 mmHg 20%
    13:00 +25°C° 0 mm 3 mps 658 mmHg 19%
    14:00 +25°C° 0 mm 3 mps 657 mmHg 19%
    15:00 +25°C° 0 mm 3 mps 657 mmHg 19%
    16:00 +25°C° 0 mm 3 mps 657 mmHg 19%
    17:00 +24°C° 0 mm 2 mps 657 mmHg 21%
    18:00 +23°C° 0 mm 2 mps 657 mmHg 22%
    19:00 +22°C° 0 mm 1 mps 657 mmHg 24%
    20:00 +21°C° 0 mm 1 mps 657 mmHg 26%
    21:00 +21°C° 0 mm 1 mps 657 mmHg 27%
    22:00 +20°C° 0 mm 1 mps 657 mmHg 28%
    23:00 +19°C° 0 mm 1 mps 656 mmHg 28%
    Show more